Location: ???? ?????????
(31.1304°N, 31.7111°E)
Time: 12:20:07
(UTC+00:00)

Meteor 2-21 Rocket - Pass Details

Date: 29 October 2020
Orbit: 935 x 968 km, 82.5° (Epoch: 26 November)

Event Time Altitude Azimuth Distance (km) Brightness Sun altitude
Rises 15:33:56 0° 354° (N) 3,639 7.4 -6.4°
Reaches altitude 10° 15:36:27 10° 355° (N) 2,685 6.8 -7.0°
Maximum altitude 15:42:37 87° 85° (E) 953 4.5 -8.3°
Drops below altitude 10° 15:48:41 10° 174° (S) 2,649 6.8 -9.5°
Sets 15:51:08 0° 175° (S) 3,586 7.5 -10.1°
